Beaufort, NC

9:12 PM EST on February 06, 2016 (GMT -0500)
Smith

Weather History for KMRH - February, 2015

Change the Weather History Date:

Saturday, February 7, 2015

  Actual Average Record
Temperature  
Mean Temperature 42 °F -  
Max Temperature 52 °F 55 °F 70 °F (1990)
Min Temperature 33 °F 36 °F 15 °F (1978)
Degree Days  
Heating Degree Days 22    
Moisture  
Dew Point 33 °F    
Average Humidity 63    
Maximum Humidity 77    
Minimum Humidity 49    
Precipitation  
Precipitation 0.00 in - - ()
Sea Level Pressure  
Sea Level Pressure 30.24 in    
Wind  
Wind Speed 8 mph (WSW)    
Max Wind Speed 16 mph    
Max Gust Speed -    
Visibility 10 miles    
Events      
Averages and records for this station are not official NWS values.
T = Trace of Precipitation, MM = Missing Value Source: NWS Daily Summary

Daily Weather History Graph

Daily Weather History Graph

Search for Another Location

Airport or City:

Trip Planner

Search our weather history database for the weather conditions in past years. The results will help you decide how hot, cold, wet, or windy it might be!

Date:

Astronomy

Feb. 07, 2015 Rise Set
Actual Time 7:00 AM EST 5:41 PM EST
Civil Twilight 6:34 AM EST 6:07 PM EST
Nautical Twilight 6:04 AM EST 6:37 PM EST
Astronomical Twilight 5:34 AM EST 7:07 PM EST
Moon 9:13 PM EST 8:44 AM EST
Length of Visible Light 11h 33m
Length of Day
10h 41m
Waning Gibbous, 88% of the Moon is Illuminated
Feb 7
Waning Gibbous
Feb 11
Last Quarter
Feb 18
New
Feb 25
First Quarter
Mar 5
Full

Hourly Weather History & Observations

Time (EST) Temp. Windchill Dew Point Humidity Pressure Visibility Wind Dir Wind Speed Gust Speed Precip Events Conditions
12:58 AM 39.0 °F 33.4 °F 21.0 °F 49% 30.30 in 10.0 mi West 8.1 mph - N/A   Clear
1:58 AM 37.9 °F 32.7 °F 23.0 °F 55% 30.31 in 10.0 mi West 6.9 mph - N/A   Clear
2:58 AM 36.0 °F 32.1 °F 23.0 °F 59% 30.31 in 10.0 mi WNW 4.6 mph - N/A   Clear
3:58 AM 33.1 °F - 24.1 °F 70% 30.29 in 10.0 mi Calm Calm - N/A   Clear
4:58 AM 35.1 °F 31.0 °F 27.0 °F 72% 30.28 in 10.0 mi WSW 4.6 mph - N/A   Clear
5:58 AM 36.0 °F 33.3 °F 26.1 °F 67% 30.30 in 10.0 mi West 3.5 mph - N/A   Clear
6:58 AM 36.0 °F 30.3 °F 23.0 °F 59% 30.31 in 10.0 mi WSW 6.9 mph - N/A   Clear
7:58 AM 39.0 °F 36.8 °F 28.9 °F 67% 30.32 in 10.0 mi West 3.5 mph - N/A   Clear
8:58 AM 44.1 °F 40.1 °F 30.9 °F 60% 30.31 in 10.0 mi WSW 6.9 mph - N/A   Clear
9:58 AM 46.9 °F - 32.0 °F 56% 30.32 in 10.0 mi West 8.1 mph - N/A   Clear
10:58 AM 48.9 °F - 32.0 °F 52% 30.32 in 10.0 mi West 9.2 mph - N/A   Clear
11:58 AM 50.0 °F - 34.0 °F 54% 30.28 in 10.0 mi SW 11.5 mph - N/A   Clear
12:58 PM 50.0 °F - 35.1 °F 57% 30.24 in 10.0 mi SSW 12.7 mph - N/A   Clear
1:58 PM 51.1 °F - 36.0 °F 56% 30.19 in 10.0 mi SSW 15.0 mph - N/A   Clear
2:58 PM 52.0 °F - 37.0 °F 57% 30.17 in 10.0 mi SW 16.1 mph - N/A   Clear
3:58 PM 51.1 °F - 39.0 °F 63% 30.17 in 10.0 mi SW 15.0 mph - N/A   Clear
4:58 PM 50.0 °F - 37.9 °F 63% 30.16 in 10.0 mi SW 13.8 mph - N/A   Clear
5:58 PM 48.9 °F - 37.0 °F 64% 30.16 in 10.0 mi SW 13.8 mph - N/A   Clear
6:58 PM 50.0 °F - 37.0 °F 61% 30.17 in 10.0 mi SW 12.7 mph - N/A   Clear
7:58 PM 50.0 °F - 39.0 °F 66% 30.17 in 10.0 mi SW 15.0 mph - N/A   Clear
8:58 PM 50.0 °F - 42.1 °F 74% 30.17 in 10.0 mi SW 13.8 mph - N/A   Clear
9:58 PM 50.0 °F - 43.0 °F 77% 30.16 in 10.0 mi SW 13.8 mph - N/A   Clear
10:58 PM 50.0 °F - 43.0 °F 77% 30.16 in 10.0 mi WSW 10.4 mph - N/A   Clear
11:58 PM 50.0 °F - 42.1 °F 74% 30.15 in 10.0 mi WSW 12.7 mph - N/A   Clear